Regional Weather Roundup
Issued by NWS Albany, NY

Home | Current Version | Previous Version | Text Only | Print | Product List | Glossary On
Versions: 1 2 3 4 5 6 7 8 9 10 11 12 13 14 15 16 17 18 19 20 21 22 23 24 25 26 27
000
ASUS41 KALY 171710
RWRALY

NEW YORK STATE HOURLY WEATHER ROUNDUP
NATIONAL WEATHER SERVICE ALBANY NY
1200 PM EST WED JAN 17 2018

NOTE: "FAIR" INDICATES FEW OR NO CLOUDS BELOW 12,000 FEET WITH NO
SIGNIFICANT WEATHER AND/OR NO OBSTRUCTIONS TO VISIBILITY.

NYZ032-033-038>043-046>054-057>066-NYZ062>081-082-084-171800-
EAST


CITY           SKY/WX    TMP DP  RH WIND       PRES   REMARKS
ALBANY         LGT SNOW  26  21  81 NW12      30.27F VSB 1   WCI  16
GLENS FALLS    LGT SNOW  26  24  92 N8        30.25F FOG     WCI  18
POUGHKEEPSIE   SNOW      30  28  92 NW3       30.23F VSB 1/2
NEWBURGH       LGT SNOW  30  30 100 NW5       30.23F VSB 1   WCI  25
MONTGOMERY     SNOW      31  29  92 CALM      30.22F VSB 1/2
WHITE PLAINS   LGT SNOW  32  31  96 W10       30.19F VSB 1   WCI  24
ISLIP          LGT RAIN  38  36  92 N10       30.18F FOG     WCI  31
NEW YORK CITY  LGT SNOW  34  31  88 NW10      30.22F FOG     WCI  26
CENTRAL PARK   CLOUDY    33  31  92 NW7       30.23F FOG     WCI  27
$$

NYZ005>009-017-018-044>046-055-056-171800-
CENTRAL


CITY           SKY/WX    TMP DP  RH WIND       PRES   REMARKS
FULTON         MIX PCPN  18   7  62 SW13      30.35F WCI   5
SYRACUSE       FLURRIES  17  10  74 SW9       30.36F WCI   6
ROME           LGT SNOW  17  12  80 W8        30.36F WCI   7
ELMIRA         FAIR      18   7  62 W6        30.34F WCI  10
BINGHAMTON     CLOUDY    14   6  70 NW10      30.25F WCI   1
$$

NYZ026>034-041>043-087-171800-
NORTH


CITY           SKY/WX    TMP DP  RH WIND       PRES   REMARKS
WATERTOWN      LGT SNOW  22  19  89 SW14      30.31F VSB 3/4 WCI   9
FORT DRUM      NOT AVBL
OGDENSBURG     FAIR      26  19  72 S7        30.29F WCI  19
MASSENA        LGT SNOW  18  16  92 S7        30.31F FOG     WCI   9
SARANAC LAKE   LGT SNOW  19  14  81 W6        30.16F WCI  11
PLATTSBURGH    CLOUDY    17  15  92 N3        30.29F FOG
$$

NYZ001>004-010>016-019>021-085-171800-
WEST


CITY           SKY/WX    TMP DP  RH WIND       PRES   REMARKS
NIAGARA FALLS  FAIR      19   8  62 W18       30.36F WCI   4
BUFFALO        SNOW      15  12  88 SW17G23   30.36F VSB 1/2 WCI  -1
DUNKIRK        LGT SNOW  14   9  80 SW12      30.42F WCI   0
JAMESTOWN      FAIR      13   4  67 SW6       30.32F WCI   4
WELLSVILLE     FAIR      13   5  70 NW9       30.26F WCI   1
ROCHESTER      FLURRIES  19  10  68 W16       30.36F WCI   4
PENN YAN       CLOUDY    18   6  59 W8        30.33F WCI   8
$$

             KEY
       WCI = WIND CHILL INDEX
       VSB = VISIBILITY
       HX  = HEAT INDEX
$$




USA.gov is the U.S. government's official web portal to all federal, state and local government web resources and services.